contact:dominique.lefevre@mio.osupytheas.fr, maurice.libes@osupytheas.fr, didier.mallarino@osupytheas.fr
Project:EMSO http://www.emso-fr.org/EMSO-France
Depth: 2436.0 m
Title:EMSO Ligure Ouest : Data MII capteur AQUADOPP
Date,Latitude,Longitude,X_East,Y_North,Z_Up,Amplitude_X,Amplitude_Y,Amplitude_Z,Batterie,SoundSpeed,Heading,Pitch,Roll,Pressure,TIS,Speed,Direction
, degrees North, degrees East, m.s-1, m.s-1,m.s-1, 1, 1, 1, Volt, m.s-1, degree, degree, degree, dbar, degree_C, m.s-1, degree
2024-04-08T00:04:03,42.805,6.029,-0.051,0.066,-0.006,104.0,102.0,101.0,13.4,1505.2,358.2,-0.8,1.8,2471.523,13.29,0.083,322.3
2024-04-08T00:07:03,42.805,6.029,-0.048,0.075,-0.015,104.0,103.0,101.0,13.3,1505.2,8.4,-0.7,1.8,2471.529,13.29,0.089,327.4
2024-04-08T00:10:03,42.805,6.029,-0.052,0.03,-0.02,104.0,104.0,100.0,13.4,1505.2,352.2,-0.8,1.8,2471.533,13.29,0.06,300.0
2024-04-08T00:13:03,42.805,6.029,-0.034,0.003,-0.022,105.0,104.0,99.0,13.4,1505.2,354.7,-0.8,1.8,2471.517,13.29,0.034,275.0
2024-04-08T00:16:03,42.805,6.029,-0.011,0.032,0.005,103.0,103.0,102.0,13.4,1505.2,0.6,-0.8,1.8,2471.522,13.29,0.033,341.0
2024-04-08T00:19:05,42.805,6.029,-0.028,0.048,-0.005,103.0,103.0,100.0,13.4,1505.2,6.4,-0.8,1.8,2471.485,13.29,0.055,329.7
2024-04-08T00:22:03,42.805,6.029,-0.044,0.042,0.007,105.0,102.0,102.0,13.4,1505.2,356.2,-0.7,1.8,2471.5,13.29,0.06,313.7
2024-04-08T00:25:03,42.805,6.029,-0.033,0.047,0.027,103.0,103.0,101.0,13.4,1505.2,358.7,-0.8,1.8,2471.497,13.29,0.057,324.9
2024-04-08T00:28:03,42.805,6.029,-0.049,0.045,-0.017,104.0,103.0,102.0,13.4,1505.2,358.3,-0.8,1.9,2471.476,13.29,0.066,312.6
2024-04-08T00:31:03,42.805,6.029,-0.036,0.027,0.003,103.0,103.0,101.0,13.4,1505.2,355.1,-0.8,1.8,2471.505,13.29,0.045,306.9
2024-04-08T00:34:03,42.805,6.029,-0.024,0.042,0.033,103.0,103.0,101.0,13.4,1505.2,4.7,-0.7,1.8,2471.495,13.29,0.048,330.3
2024-04-08T00:37:03,42.805,6.029,-0.051,0.041,0.001,103.0,101.0,102.0,13.4,1505.2,359.4,-0.7,1.8,2471.471,13.29,0.065,308.8
2024-04-08T00:40:03,42.805,6.029,-0.014,0.04,0.025,103.0,104.0,100.0,13.4,1505.2,355.1,-0.7,1.8,2471.52,13.29,0.042,340.7
2024-04-08T00:43:03,42.805,6.029,-0.04,0.045,-0.001,104.0,103.0,100.0,13.4,1505.2,6.2,-0.7,1.8,2471.491,13.29,0.06,318.4
2024-04-08T00:46:03,42.805,6.029,-0.039,0.053,-0.011,103.0,102.0,101.0,13.4,1505.2,356.5,-0.8,1.8,2471.466,13.29,0.065,323.7
2024-04-08T00:49:03,42.805,6.029,-0.032,0.056,-0.007,102.0,102.0,101.0,13.4,1505.2,4.2,-0.8,1.8,2471.499,13.29,0.064,330.3
2024-04-08T00:52:03,42.805,6.029,-0.035,0.052,-0.002,103.0,103.0,101.0,13.4,1505.2,4.1,-0.7,1.8,2471.481,13.29,0.062,326.1
2024-04-08T00:55:03,42.805,6.029,-0.022,0.048,-0.003,103.0,103.0,100.0,13.4,1505.2,1.1,-0.8,1.8,2471.462,13.29,0.052,335.4
2024-04-08T00:58:03,42.805,6.029,-0.015,0.055,0.011,103.0,104.0,100.0,13.3,1505.2,7.4,-0.7,1.8,2471.477,13.29,0.057,344.7
2024-04-08T01:04:03,42.805,6.029,-0.032,0.041,-0.014,104.0,102.0,100.0,13.4,1505.2,4.0,-0.8,1.8,2471.492,13.29,0.052,322.0
2024-04-08T01:07:03,42.805,6.029,-0.042,0.05,-0.004,104.0,103.0,102.0,13.3,1505.2,359.4,-0.7,1.8,2471.518,13.29,0.065,320.0
2024-04-08T01:10:03,42.805,6.029,-0.056,0.031,-0.023,104.0,103.0,102.0,13.4,1505.2,8.2,-0.8,1.8,2471.548,13.29,0.064,299.0
2024-04-08T01:13:03,42.805,6.029,-0.037,0.048,-0.007,104.0,103.0,101.0,13.4,1505.2,7.7,-0.8,1.8,2471.525,13.29,0.06,322.4
2024-04-08T01:16:03,42.805,6.029,-0.039,0.037,0.012,104.0,104.0,101.0,13.4,1505.2,358.9,-0.7,1.8,2471.516,13.29,0.053,313.5
2024-04-08T01:19:05,42.805,6.029,-0.041,0.039,-0.024,104.0,102.0,102.0,13.4,1505.2,3.0,-0.8,1.8,2471.485,13.29,0.056,313.6
2024-04-08T01:22:03,42.805,6.029,-0.023,0.037,-0.014,103.0,103.0,101.0,13.4,1505.2,0.5,-0.8,1.8,2471.51,13.29,0.043,328.1
2024-04-08T01:25:03,42.805,6.029,-0.043,0.039,-0.003,104.0,103.0,101.0,13.4,1505.2,356.8,-0.8,1.8,2471.462,13.29,0.058,312.2
2024-04-08T01:28:03,42.805,6.029,-0.053,0.058,-0.015,104.0,103.0,101.0,13.3,1505.2,353.9,-0.7,1.8,2471.495,13.29,0.078,317.6
2024-04-08T01:31:03,42.805,6.029,-0.052,0.017,-0.023,105.0,102.0,101.0,13.3,1505.2,3.6,-0.8,1.8,2471.51,13.29,0.054,288.1
2024-04-08T01:34:03,42.805,6.029,-0.042,0.048,0.01,103.0,102.0,101.0,13.3,1505.2,356.0,-0.7,1.9,2471.512,13.29,0.063,318.8
2024-04-08T01:37:03,42.805,6.029,-0.029,0.027,0.002,104.0,102.0,101.0,13.4,1505.2,1.0,-0.8,1.8,2471.506,13.29,0.039,313.0
2024-04-08T01:40:03,42.805,6.029,-0.065,0.039,-0.006,104.0,100.0,102.0,13.4,1505.2,357.5,-0.7,1.8,2471.482,13.29,0.075,301.0
2024-04-08T01:43:03,42.805,6.029,-0.045,0.067,-0.011,103.0,103.0,101.0,13.3,1505.2,6.7,-0.8,1.8,2471.494,13.29,0.08,326.1
2024-04-08T01:46:03,42.805,6.029,-0.065,0.046,-0.014,102.0,102.0,103.0,13.4,1505.2,352.0,-0.8,1.8,2471.492,13.29,0.079,305.3
2024-04-08T01:49:03,42.805,6.029,-0.042,0.003,-0.025,103.0,104.0,101.0,13.4,1505.2,357.7,-0.8,1.8,2471.514,13.29,0.042,274.1
2024-04-08T01:52:03,42.805,6.029,-0.017,0.043,0.013,104.0,102.0,101.0,13.3,1505.2,4.7,-0.7,1.8,2471.482,13.29,0.046,338.4
2024-04-08T01:55:03,42.805,6.029,-0.04,0.032,0.016,104.0,103.0,101.0,13.3,1505.2,358.9,-0.8,1.8,2471.504,13.29,0.051,308.7
2024-04-08T01:58:03,42.805,6.029,-0.041,0.051,-0.006,103.0,103.0,101.0,13.4,1505.2,9.1,-0.8,1.8,2471.511,13.29,0.065,321.2
2024-04-08T02:04:03,42.805,6.029,-0.046,0.026,-0.015,104.0,102.0,102.0,13.4,1505.2,357.0,-0.8,1.8,2471.548,13.29,0.052,299.5
2024-04-08T02:07:03,42.805,6.029,-0.034,0.036,-0.001,104.0,104.0,100.0,13.4,1505.2,4.8,-0.7,1.8,2471.522,13.29,0.049,316.6
2024-04-08T02:10:03,42.805,6.029,-0.035,0.05,-0.002,104.0,101.0,100.0,13.4,1505.2,5.8,-0.8,1.8,2471.502,13.29,0.061,325.0
2024-04-08T02:13:03,42.805,6.029,-0.062,0.043,0.012,102.0,103.0,100.0,13.4,1505.2,355.1,-0.7,1.8,2471.529,13.29,0.075,304.7
2024-04-08T02:16:03,42.805,6.029,-0.036,0.045,-0.007,103.0,103.0,101.0,13.4,1505.2,4.6,-0.7,1.8,2471.512,13.29,0.057,321.3
2024-04-08T02:19:03,42.805,6.029,-0.047,0.068,0.018,103.0,102.0,101.0,13.4,1505.2,358.3,-0.8,1.8,2471.499,13.29,0.082,325.3
2024-04-08T02:22:03,42.805,6.029,-0.051,0.023,-0.019,103.0,102.0,101.0,13.4,1505.2,1.0,-0.8,1.8,2471.498,13.29,0.055,294.3
2024-04-08T02:25:03,42.805,6.029,-0.054,0.01,-0.028,104.0,102.0,101.0,13.3,1505.2,352.1,-0.7,1.8,2471.525,13.29,0.054,280.5
2024-04-08T02:28:03,42.805,6.029,-0.033,0.032,-0.011,104.0,103.0,101.0,13.4,1505.2,4.6,-0.8,1.8,2471.551,13.29,0.045,314.1
2024-04-08T02:31:03,42.805,6.029,-0.026,0.048,0.016,103.0,103.0,101.0,13.3,1505.2,6.0,-0.7,1.8,2471.54,13.29,0.054,331.6
2024-04-08T02:34:03,42.805,6.029,-0.046,0.039,-0.012,104.0,102.0,99.0,13.4,1505.2,351.2,-0.7,1.8,2471.536,13.29,0.06,310.3
2024-04-08T02:37:03,42.805,6.029,-0.047,0.044,0.001,104.0,103.0,101.0,13.4,1505.2,357.2,-0.8,1.8,2471.501,13.29,0.064,313.1
2024-04-08T02:40:03,42.805,6.029,-0.047,0.031,-0.038,103.0,101.0,101.0,13.3,1505.2,358.2,-0.8,1.8,2471.537,13.29,0.056,303.4
2024-04-08T02:43:03,42.805,6.029,-0.051,0.035,-0.033,103.0,103.0,101.0,13.4,1505.2,6.4,-0.7,1.8,2471.537,13.29,0.061,304.5
2024-04-08T02:46:03,42.805,6.029,-0.05,0.044,-0.005,103.0,103.0,102.0,13.3,1505.2,354.6,-0.8,1.8,2471.539,13.29,0.066,311.3
2024-04-08T02:49:03,42.805,6.029,-0.039,0.026,-0.036,104.0,102.0,101.0,13.4,1505.2,356.5,-0.8,1.8,2471.537,13.29,0.046,303.7
2024-04-08T02:52:03,42.805,6.029,-0.038,0.041,0.011,105.0,102.0,100.0,13.4,1505.2,6.4,-0.8,1.8,2471.533,13.29,0.055,317.2
2024-04-08T02:55:03,42.805,6.029,-0.044,0.028,-0.003,103.0,103.0,101.0,13.3,1505.2,8.7,-0.8,1.8,2471.538,13.29,0.052,302.5
2024-04-08T02:58:03,42.805,6.029,-0.044,0.02,0.032,103.0,103.0,101.0,13.4,1505.2,356.2,-0.8,1.8,2471.578,13.29,0.048,294.4
2024-04-08T03:04:03,42.805,6.029,-0.047,0.031,0.0,103.0,103.0,101.0,13.3,1505.2,3.4,-0.8,1.8,2471.575,13.29,0.056,303.4
2024-04-08T03:07:03,42.805,6.029,-0.038,0.036,0.027,103.0,103.0,100.0,13.4,1505.2,357.7,-0.7,1.8,2471.568,13.29,0.052,313.5
2024-04-08T03:10:03,42.805,6.029,-0.027,0.026,-0.018,103.0,103.0,101.0,13.3,1505.2,8.7,-0.8,1.8,2471.554,13.29,0.037,313.9
2024-04-08T03:13:03,42.805,6.029,-0.028,0.047,-0.003,103.0,103.0,101.0,13.4,1505.2,3.1,-0.8,1.8,2471.56,13.29,0.054,329.2
2024-04-08T03:16:03,42.805,6.029,-0.033,0.037,-0.002,103.0,102.0,101.0,13.4,1505.2,353.6,-0.7,1.8,2471.599,13.29,0.049,318.3
2024-04-08T03:19:03,42.805,6.029,-0.041,0.038,0.009,103.0,103.0,101.0,13.3,1505.2,0.0,-0.8,1.8,2471.605,13.29,0.055,312.8
2024-04-08T03:22:03,42.805,6.029,-0.051,0.023,-0.035,105.0,102.0,101.0,13.4,1505.2,4.8,-0.8,1.8,2471.594,13.29,0.055,294.3
2024-04-08T03:25:03,42.805,6.029,-0.05,0.027,-0.002,104.0,102.0,101.0,13.4,1505.2,8.1,-0.8,1.8,2471.613,13.29,0.056,298.4
2024-04-08T03:28:03,42.805,6.029,-0.019,0.021,-0.025,103.0,104.0,102.0,13.4,1505.2,0.5,-0.7,1.8,2471.585,13.29,0.028,317.9
2024-04-08T03:31:03,42.805,6.029,-0.021,0.039,-0.001,103.0,103.0,101.0,13.3,1505.2,3.6,-0.8,1.8,2471.596,13.29,0.044,331.7
2024-04-08T03:34:03,42.805,6.029,-0.05,0.058,-0.008,105.0,102.0,100.0,13.4,1505.2,2.3,-0.7,1.8,2471.645,13.29,0.076,319.2
2024-04-08T03:37:03,42.805,6.029,-0.036,0.017,-0.007,102.0,103.0,102.0,13.4,1505.2,8.5,-0.7,1.9,2471.603,13.29,0.039,295.3
2024-04-08T03:40:03,42.805,6.029,-0.033,0.038,0.006,104.0,103.0,101.0,13.3,1505.2,354.8,-0.8,1.8,2471.616,13.29,0.05,319.0
2024-04-08T03:43:03,42.805,6.029,-0.042,0.008,-0.03,103.0,103.0,101.0,13.3,1505.2,358.3,-0.8,1.8,2471.623,13.29,0.042,280.8
2024-04-08T03:46:03,42.805,6.029,-0.044,0.053,-0.01,104.0,104.0,101.0,13.3,1505.2,3.6,-0.8,1.8,2471.594,13.29,0.068,320.3
2024-04-08T03:49:03,42.805,6.029,-0.035,0.056,-0.03,103.0,103.0,101.0,13.4,1505.2,8.6,-0.8,1.8,2471.613,13.29,0.066,328.0
2024-04-08T03:52:03,42.805,6.029,-0.03,0.035,-0.005,103.0,102.0,101.0,13.4,1505.2,3.7,-0.7,1.8,2471.602,13.29,0.046,319.4
2024-04-08T03:55:03,42.805,6.029,-0.038,0.038,-0.013,103.0,102.0,101.0,13.4,1505.2,5.2,-0.7,1.8,2471.591,13.29,0.053,315.0
2024-04-08T03:58:03,42.805,6.029,-0.042,0.028,-0.004,103.0,102.0,101.0,13.3,1505.2,357.7,-0.8,1.8,2471.673,13.29,0.05,303.7
2024-04-08T04:04:03,42.805,6.029,-0.029,0.042,-0.026,103.0,103.0,101.0,13.4,1505.2,8.1,-0.8,1.8,2471.665,13.29,0.051,325.4
2024-04-08T04:07:03,42.805,6.029,-0.041,0.027,0.001,104.0,103.0,101.0,13.3,1505.2,352.8,-0.8,1.8,2471.636,13.29,0.049,303.4
2024-04-08T04:10:03,42.805,6.029,-0.053,0.064,-0.006,104.0,102.0,101.0,13.4,1505.2,4.1,-0.7,1.8,2471.628,13.29,0.083,320.4
2024-04-08T04:13:03,42.805,6.029,-0.04,0.02,0.005,103.0,102.0,101.0,13.3,1505.2,357.0,-0.8,1.8,2471.684,13.29,0.044,296.6
2024-04-08T04:16:03,42.805,6.029,-0.048,0.019,-0.015,104.0,102.0,102.0,13.3,1505.2,4.6,-0.8,1.8,2471.669,13.29,0.051,291.6
2024-04-08T04:19:03,42.805,6.029,-0.046,0.021,-0.009,102.0,103.0,102.0,13.4,1505.2,4.8,-0.8,1.8,2471.678,13.29,0.05,294.5
2024-04-08T04:22:03,42.805,6.029,-0.045,0.018,0.011,104.0,104.0,102.0,13.4,1505.2,355.7,-0.7,1.8,2471.67,13.29,0.048,291.8
2024-04-08T04:25:03,42.805,6.029,-0.043,0.042,-0.02,104.0,104.0,101.0,13.3,1505.2,1.0,-0.8,1.8,2471.682,13.29,0.06,314.3
2024-04-08T04:28:03,42.805,6.029,-0.05,0.043,-0.016,104.0,103.0,101.0,13.4,1505.2,6.4,-0.7,1.8,2471.706,13.29,0.065,310.7
2024-04-08T04:31:03,42.805,6.029,-0.035,0.047,-0.04,107.0,107.0,101.0,13.4,1505.2,4.9,-0.8,1.8,2471.676,13.29,0.058,323.3
2024-04-08T04:34:03,42.805,6.029,-0.035,0.018,-0.021,106.0,105.0,102.0,13.4,1505.2,357.0,-0.8,1.8,2471.706,13.29,0.039,297.2
2024-04-08T04:37:03,42.805,6.029,-0.036,0.055,0.003,104.0,102.0,101.0,13.4,1505.2,3.3,-0.7,1.8,2471.693,13.29,0.065,326.8
2024-04-08T04:40:03,42.805,6.029,-0.04,0.028,0.0,104.0,103.0,102.0,13.3,1505.2,1.1,-0.7,1.8,2471.678,13.29,0.048,305.0
2024-04-08T04:43:03,42.805,6.029,-0.036,0.041,0.032,103.0,103.0,102.0,13.4,1505.2,4.8,-0.7,1.8,2471.686,13.29,0.054,318.7
2024-04-08T04:46:03,42.805,6.029,-0.04,0.03,0.001,104.0,103.0,102.0,13.4,1505.2,351.5,-0.8,1.8,2471.74,13.29,0.05,306.9
2024-04-08T04:49:03,42.805,6.029,-0.052,0.015,-0.029,104.0,103.0,102.0,13.3,1505.2,358.8,-0.8,1.8,2471.711,13.29,0.054,286.1
2024-04-08T04:52:03,42.805,6.029,-0.043,0.03,-0.008,104.0,103.0,101.0,13.4,1505.2,0.5,-0.7,1.8,2471.692,13.29,0.052,304.9
2024-04-08T04:55:03,42.805,6.029,-0.043,0.018,-0.012,103.0,104.0,101.0,13.4,1505.2,358.2,-0.8,1.8,2471.67,13.29,0.046,292.7
2024-04-08T04:58:03,42.805,6.029,-0.046,0.028,-0.018,104.0,103.0,101.0,13.4,1505.2,4.7,-0.8,1.8,2471.697,13.29,0.053,301.3
2024-04-08T05:04:03,42.805,6.029,-0.045,0.02,-0.025,105.0,103.0,102.0,13.3,1505.2,353.1,-0.8,1.8,2471.712,13.29,0.049,294.0
2024-04-08T05:07:03,42.805,6.029,-0.038,0.04,-0.007,103.0,105.0,103.0,13.4,1505.2,4.1,-0.7,1.8,2471.721,13.29,0.055,316.5
2024-04-08T05:10:03,42.805,6.029,-0.052,0.023,-0.002,103.0,104.0,101.0,13.3,1505.2,1.1,-0.8,1.8,2471.751,13.29,0.056,293.9
2024-04-08T05:13:03,42.805,6.029,-0.033,0.043,0.006,105.0,103.0,101.0,13.3,1505.2,4.8,-0.8,1.8,2471.708,13.29,0.054,322.5
2024-04-08T05:16:03,42.805,6.029,-0.062,0.032,-0.044,104.0,103.0,101.0,13.3,1505.2,1.5,-0.8,1.8,2471.756,13.29,0.069,297.3
2024-04-08T05:19:07,42.805,6.029,-0.036,0.032,0.014,104.0,104.0,102.0,13.4,1505.2,352.9,-0.8,1.8,2471.756,13.29,0.048,311.6
2024-04-08T05:22:03,42.805,6.029,-0.05,0.035,-0.006,103.0,103.0,101.0,13.4,1505.2,2.3,-0.7,1.8,2471.735,13.29,0.061,305.0
2024-04-08T05:25:03,42.805,6.029,-0.055,0.029,0.008,104.0,103.0,101.0,13.3,1505.2,355.9,-0.8,1.8,2471.756,13.29,0.062,297.8
2024-04-08T05:28:03,42.805,6.029,-0.046,0.057,-0.02,104.0,103.0,101.0,13.3,1505.2,6.4,-0.7,1.8,2471.757,13.29,0.073,321.1
2024-04-08T05:31:03,42.805,6.029,-0.044,0.016,0.026,105.0,103.0,101.0,13.4,1505.2,353.4,-0.8,1.8,2471.76,13.29,0.046,290.0
2024-04-08T05:34:03,42.805,6.029,-0.074,0.055,-0.003,102.0,104.0,102.0,13.4,1505.2,1.7,-0.7,1.8,2471.802,13.29,0.092,306.6
2024-04-08T05:37:03,42.805,6.029,-0.067,0.052,-0.016,105.0,103.0,101.0,13.4,1505.2,357.1,-0.8,1.8,2471.745,13.29,0.084,307.8
2024-04-08T05:40:03,42.805,6.029,-0.039,0.025,-0.013,104.0,103.0,101.0,13.4,1505.2,359.4,-0.7,1.8,2471.758,13.29,0.046,302.7
2024-04-08T05:43:03,42.805,6.029,-0.039,0.011,-0.004,105.0,103.0,102.0,13.4,1505.2,0.5,-0.8,1.8,2471.772,13.29,0.04,285.7
2024-04-08T05:46:03,42.805,6.029,-0.054,0.057,-0.022,105.0,102.0,101.0,13.4,1505.2,5.0,-0.8,1.8,2471.792,13.29,0.078,316.5
2024-04-08T05:49:03,42.805,6.029,-0.065,0.036,0.005,103.0,103.0,102.0,13.3,1505.2,355.9,-0.8,1.8,2471.775,13.29,0.074,299.0
2024-04-08T05:52:03,42.805,6.029,-0.047,0.046,-0.024,104.0,104.0,101.0,13.4,1505.2,2.1,-0.7,1.8,2471.795,13.29,0.065,314.4
2024-04-08T05:55:03,42.805,6.029,-0.055,0.008,-0.007,105.0,104.0,102.0,13.3,1505.2,356.4,-0.8,1.8,2471.792,13.29,0.055,278.3
2024-04-08T05:58:03,42.805,6.029,-0.059,0.032,-0.012,104.0,102.0,103.0,13.4,1505.2,356.6,-0.8,1.8,2471.787,13.29,0.067,298.5
2024-04-08T06:04:03,42.805,6.029,-0.041,0.02,-0.004,104.0,103.0,102.0,13.4,1505.2,357.1,-0.8,1.8,2471.787,13.29,0.045,296.0
2024-04-08T06:07:03,42.805,6.029,-0.059,0.028,-0.01,104.0,103.0,102.0,13.4,1505.2,1.0,-0.8,1.8,2471.797,13.29,0.065,295.4
2024-04-08T06:10:03,42.805,6.029,-0.037,0.03,-0.008,104.0,104.0,103.0,13.4,1505.2,1.1,-0.8,1.8,2471.8,13.29,0.047,309.0
2024-04-08T06:13:03,42.805,6.029,-0.031,0.014,-0.01,105.0,102.0,102.0,13.4,1505.2,0.5,-0.8,1.8,2471.779,13.29,0.034,294.3
2024-04-08T06:16:03,42.805,6.029,-0.063,0.059,-0.016,105.0,103.0,101.0,13.4,1505.2,8.6,-0.8,1.8,2471.827,13.29,0.086,313.1
2024-04-08T06:19:03,42.805,6.029,-0.063,0.031,-0.026,104.0,103.0,101.0,13.4,1505.2,1.6,-0.8,1.8,2471.783,13.29,0.07,296.2
2024-04-08T06:22:03,42.805,6.029,-0.05,0.054,0.016,105.0,103.0,102.0,13.4,1505.2,354.2,-0.7,1.8,2471.79,13.29,0.073,317.2
2024-04-08T06:25:03,42.805,6.029,-0.058,0.058,0.0,104.0,104.0,102.0,13.3,1505.2,357.7,-0.7,1.8,2471.784,13.29,0.082,315.0
2024-04-08T06:28:03,42.805,6.029,-0.053,0.062,-0.022,104.0,104.0,102.0,13.3,1505.2,5.4,-0.7,1.8,2471.764,13.29,0.081,319.5
2024-04-08T06:31:03,42.805,6.029,-0.034,0.068,0.005,104.0,104.0,102.0,13.4,1505.2,359.4,-0.8,1.8,2471.784,13.29,0.076,333.4
2024-04-08T06:34:03,42.805,6.029,-0.073,0.033,-0.034,104.0,103.0,101.0,13.3,1505.2,0.0,-0.7,1.8,2471.794,13.29,0.08,294.3
2024-04-08T06:37:03,42.805,6.029,-0.058,0.029,-0.011,104.0,103.0,101.0,13.4,1505.2,353.4,-0.8,1.8,2471.785,13.29,0.064,296.6
2024-04-08T06:40:03,42.805,6.029,-0.052,0.055,0.001,104.0,103.0,101.0,13.4,1505.2,1.2,-0.7,1.8,2471.775,13.29,0.075,316.6
2024-04-08T06:43:03,42.805,6.029,-0.042,0.02,-0.018,104.0,104.0,101.0,13.4,1505.2,358.7,-0.8,1.8,2471.781,13.29,0.046,295.5
2024-04-08T06:46:03,42.805,6.029,-0.064,0.018,-0.034,103.0,104.0,101.0,13.3,1505.2,359.4,-0.8,1.8,2471.749,13.29,0.066,285.7
2024-04-08T06:49:03,42.805,6.029,-0.062,0.055,-0.018,103.0,102.0,101.0,13.3,1505.2,1.6,-0.8,1.8,2471.764,13.29,0.082,311.6
2024-04-08T06:52:03,42.805,6.029,-0.038,0.038,-0.003,103.0,103.0,102.0,13.4,1505.2,3.4,-0.7,1.9,2471.81,13.29,0.053,315.0
2024-04-08T06:55:03,42.805,6.029,-0.062,0.04,0.013,103.0,104.0,102.0,13.4,1505.2,0.0,-0.7,1.8,2471.806,13.29,0.073,302.8
2024-04-08T06:58:03,42.805,6.029,-0.063,0.038,-0.021,104.0,104.0,102.0,13.4,1505.2,358.3,-0.8,1.8,2471.802,13.29,0.073,301.1
2024-04-08T07:04:03,42.805,6.029,-0.04,0.047,-0.027,104.0,103.0,102.0,13.4,1505.2,8.2,-0.8,1.8,2471.861,13.29,0.061,319.6
2024-04-08T07:07:03,42.805,6.029,-0.07,0.057,-0.016,104.0,104.0,101.0,13.4,1505.2,356.1,-0.7,1.8,2471.835,13.29,0.09,309.2
2024-04-08T07:10:03,42.805,6.029,-0.053,0.044,0.0,104.0,103.0,101.0,13.4,1505.2,359.4,-0.8,1.8,2471.845,13.29,0.068,309.7
2024-04-08T07:13:03,42.805,6.029,-0.055,0.041,-0.017,104.0,103.0,102.0,13.4,1505.2,358.3,-0.7,1.8,2471.755,13.29,0.068,306.7
2024-04-08T07:16:03,42.805,6.029,-0.037,0.036,-0.012,104.0,104.0,101.0,13.4,1505.2,2.2,-0.7,1.8,2471.789,13.29,0.051,314.2
2024-04-08T07:19:03,42.805,6.029,-0.066,0.043,-0.022,104.0,103.0,101.0,13.4,1505.2,359.4,-0.8,1.8,2471.824,13.29,0.078,303.1
2024-04-08T07:22:03,42.805,6.029,-0.033,0.05,0.02,104.0,103.0,101.0,13.3,1505.2,8.3,-0.8,1.8,2471.805,13.29,0.059,326.6
2024-04-08T07:25:03,42.805,6.029,-0.067,0.017,-0.022,104.0,105.0,101.0,13.3,1505.2,354.0,-0.8,1.8,2471.787,13.29,0.069,284.2
2024-04-08T07:28:03,42.805,6.029,-0.029,0.011,-0.034,105.0,102.0,102.0,13.4,1505.2,5.2,-0.8,1.8,2471.766,13.29,0.031,290.8
2024-04-08T07:31:03,42.805,6.029,-0.043,0.044,0.001,105.0,103.0,102.0,13.4,1505.2,356.3,-0.8,1.8,2471.789,13.29,0.061,315.7
2024-04-08T07:34:03,42.805,6.029,-0.046,0.045,-0.017,106.0,104.0,102.0,13.3,1505.2,358.3,-0.8,1.8,2471.819,13.29,0.064,314.4
2024-04-08T07:37:03,42.805,6.029,-0.06,0.039,-0.026,105.0,104.0,101.0,13.4,1505.2,7.8,-0.8,1.8,2471.764,13.29,0.071,303.0
2024-04-08T07:40:03,42.805,6.029,-0.076,0.036,-0.018,104.0,103.0,101.0,13.4,1505.2,356.0,-0.8,1.8,2471.783,13.29,0.084,295.3
2024-04-08T07:43:03,42.805,6.029,-0.063,0.04,-0.021,103.0,103.0,101.0,13.4,1505.2,358.3,-0.8,1.8,2471.845,13.29,0.074,302.4
2024-04-08T07:46:03,42.805,6.029,-0.064,0.038,0.001,104.0,103.0,101.0,13.4,1505.2,354.5,-0.8,1.8,2471.816,13.29,0.074,300.7
2024-04-08T07:49:03,42.805,6.029,-0.06,0.054,-0.025,103.0,103.0,102.0,13.4,1505.2,1.7,-0.8,1.8,2471.786,13.29,0.08,312.0
2024-04-08T07:52:03,42.805,6.029,-0.052,0.079,-0.015,105.0,103.0,102.0,13.4,1505.2,8.2,-0.8,1.8,2471.751,13.29,0.094,326.6
2024-04-08T07:55:03,42.805,6.029,-0.064,0.058,-0.034,104.0,103.0,101.0,13.3,1505.2,359.4,-0.7,1.8,2471.787,13.29,0.086,312.2
2024-04-08T07:58:03,42.805,6.029,-0.049,0.037,-0.042,104.0,103.0,102.0,13.3,1505.2,356.9,-0.7,1.8,2471.772,13.29,0.061,307.1
2024-04-08T08:04:03,42.805,6.029,-0.041,0.024,-0.008,106.0,105.0,102.0,13.4,1505.2,357.8,-0.8,1.8,2471.789,13.29,0.047,300.3
2024-04-08T08:07:03,42.805,6.029,-0.043,0.015,-0.034,104.0,103.0,102.0,13.3,1505.2,358.1,-0.8,1.8,2471.792,13.29,0.045,289.2
2024-04-08T08:10:03,42.805,6.029,-0.076,0.056,-0.032,103.0,103.0,101.0,13.4,1505.2,3.3,-0.8,1.8,2471.796,13.29,0.094,306.4
2024-04-08T08:13:03,42.805,6.029,-0.049,0.061,-0.006,104.0,103.0,101.0,13.3,1505.2,9.0,-0.8,1.8,2471.802,13.29,0.078,321.2
2024-04-08T08:16:03,42.805,6.029,-0.041,0.047,-0.009,104.0,104.0,102.0,13.3,1505.2,6.0,-0.8,1.8,2471.792,13.29,0.062,318.9
2024-04-08T08:19:03,42.805,6.029,-0.059,0.046,0.001,103.0,103.0,102.0,13.4,1505.2,356.7,-0.8,1.8,2471.784,13.29,0.074,307.9
2024-04-08T08:22:03,42.805,6.029,-0.058,0.038,-0.009,104.0,103.0,102.0,13.4,1505.2,2.1,-0.7,1.8,2471.75,13.29,0.069,303.2
2024-04-08T08:25:03,42.805,6.029,-0.045,0.023,0.008,104.0,104.0,102.0,13.4,1505.2,0.6,-0.7,1.8,2471.803,13.29,0.05,297.1
2024-04-08T08:28:03,42.805,6.029,-0.061,0.06,0.005,103.0,103.0,101.0,13.3,1505.2,356.6,-0.7,1.8,2471.763,13.29,0.085,314.5
2024-04-08T08:31:03,42.805,6.029,-0.07,0.046,0.004,104.0,103.0,102.0,13.4,1505.2,359.4,-0.8,1.8,2471.764,13.29,0.083,303.3
2024-04-08T08:34:03,42.805,6.029,-0.076,0.063,-0.045,105.0,103.0,102.0,13.3,1505.2,0.0,-0.8,1.8,2471.789,13.29,0.098,309.7
2024-04-08T08:37:03,42.805,6.029,-0.069,0.038,-0.016,103.0,104.0,101.0,13.3,1505.2,353.5,-0.7,1.8,2471.793,13.29,0.078,298.8
2024-04-08T08:40:03,42.805,6.029,-0.065,0.044,-0.006,105.0,102.0,102.0,13.3,1505.2,0.0,-0.8,1.8,2471.743,13.29,0.078,304.1
2024-04-08T08:43:03,42.805,6.029,-0.061,0.062,0.006,104.0,103.0,101.0,13.3,1505.2,5.4,-0.8,1.8,2471.739,13.29,0.086,315.5
2024-04-08T08:46:03,42.805,6.029,-0.03,0.041,-0.032,103.0,104.0,102.0,13.4,1505.2,8.6,-0.7,1.9,2471.771,13.29,0.05,323.8
2024-04-08T08:49:03,42.805,6.029,-0.067,0.029,-0.024,105.0,104.0,101.0,13.4,1505.2,352.1,-0.7,1.8,2471.749,13.29,0.073,293.4
2024-04-08T08:52:03,42.805,6.029,-0.04,0.051,0.021,105.0,103.0,101.0,13.3,1505.2,3.6,-0.8,1.8,2471.75,13.29,0.064,321.9
2024-04-08T08:55:03,42.805,6.029,-0.059,0.044,-0.013,103.0,103.0,101.0,13.3,1505.2,356.6,-0.8,1.8,2471.744,13.29,0.073,306.7
2024-04-08T08:58:03,42.805,6.029,-0.05,0.05,-0.008,104.0,103.0,101.0,13.4,1505.2,2.4,-0.8,1.8,2471.77,13.29,0.07,315.0
2024-04-08T09:04:03,42.805,6.029,-0.053,0.06,-0.03,103.0,104.0,101.0,13.3,1505.2,7.7,-0.8,1.8,2471.729,13.29,0.08,318.5
2024-04-08T09:07:03,42.805,6.029,-0.074,0.038,-0.006,104.0,105.0,101.0,13.4,1505.2,357.7,-0.8,1.8,2471.743,13.29,0.083,297.2
2024-04-08T09:10:03,42.805,6.029,-0.041,0.072,-0.016,103.0,103.0,101.0,13.3,1505.2,6.5,-0.8,1.8,2471.771,13.29,0.082,330.3
2024-04-08T09:13:03,42.805,6.029,-0.033,0.047,0.007,104.0,104.0,101.0,13.4,1505.2,3.3,-0.8,1.8,2471.731,13.29,0.057,324.9
2024-04-08T09:16:03,42.805,6.029,-0.035,0.075,-0.005,104.0,101.0,102.0,13.4,1505.2,5.0,-0.7,1.8,2471.77,13.29,0.082,335.0
2024-04-08T09:19:03,42.805,6.029,-0.074,0.04,0.0,104.0,103.0,102.0,13.4,1505.2,356.6,-0.7,1.8,2471.744,13.29,0.084,298.4
2024-04-08T09:22:03,42.805,6.029,-0.049,0.022,-0.038,105.0,103.0,102.0,13.4,1505.2,356.5,-0.7,1.8,2471.722,13.29,0.053,294.2
2024-04-08T09:25:03,42.805,6.029,-0.037,0.043,-0.01,104.0,104.0,102.0,13.3,1505.2,7.5,-0.7,1.8,2471.734,13.29,0.056,319.3
2024-04-08T09:28:03,42.805,6.029,-0.071,0.026,-0.016,104.0,104.0,101.0,13.4,1505.2,354.6,-0.7,1.8,2471.703,13.29,0.075,290.1
2024-04-08T09:31:03,42.805,6.029,-0.065,0.059,0.0,102.0,104.0,100.0,13.4,1505.2,2.3,-0.8,1.8,2471.695,13.29,0.087,312.2
2024-04-08T09:34:03,42.805,6.029,-0.062,0.031,-0.046,104.0,104.0,102.0,13.3,1505.2,0.5,-0.8,1.8,2471.708,13.29,0.069,296.6
2024-04-08T09:37:03,42.805,6.029,-0.051,0.053,-0.016,104.0,103.0,101.0,13.4,1505.2,4.7,-0.7,1.8,2471.727,13.29,0.073,316.1
2024-04-08T09:40:03,42.805,6.029,-0.035,0.05,-0.013,104.0,102.0,101.0,13.4,1505.2,10.1,-0.7,1.8,2471.674,13.29,0.061,325.0
2024-04-08T09:43:03,42.805,6.029,-0.027,0.034,0.011,104.0,102.0,101.0,13.4,1505.2,351.4,-0.7,1.8,2471.72,13.29,0.043,321.5
2024-04-08T09:46:03,42.805,6.029,-0.039,0.032,0.005,104.0,103.0,101.0,13.4,1505.2,4.6,-0.8,1.8,2471.694,13.29,0.05,309.4
2024-04-08T09:49:03,42.805,6.029,-0.051,0.053,-0.001,104.0,104.0,101.0,13.4,1505.2,0.0,-0.7,1.8,2471.692,13.29,0.073,316.1
2024-04-08T09:52:03,42.805,6.029,-0.049,0.049,-0.018,103.0,103.0,102.0,13.3,1505.2,5.3,-0.8,1.8,2471.729,13.29,0.069,315.0
2024-04-08T09:55:03,42.805,6.029,-0.031,0.033,0.02,105.0,102.0,101.0,13.3,1505.2,1.5,-0.8,1.8,2471.705,13.29,0.045,316.8
2024-04-08T09:58:03,42.805,6.029,-0.043,0.035,-0.022,103.0,104.0,101.0,13.4,1505.2,358.2,-0.7,1.8,2471.695,13.29,0.055,309.1
2024-04-08T10:04:03,42.805,6.029,-0.032,0.039,-0.004,104.0,102.0,101.0,13.4,1505.2,8.6,-0.8,1.8,2471.721,13.29,0.05,320.6